Skip Page Navigation
NASA JPL Caltech
NASA Logo - Jet Propulsion Laboratory + View the NASA Portal
+ Center for Near-Earth Object Studies
JPL Home Earth Solar System Stars & Galaxies Technology
JPL Solar System Dynamics
BODIES ORBITS EPHEMERIDES TOOLS PHYSICAL DATA DISCOVERY FAQ SITE MAP
JPL Small-Body Database Browser
Search: [ help ]  
(2010 CF)
Classification: Main-belt Asteroid          SPK-ID: 3507954
Ephemeris | Orbit Diagram | Orbital Elements | Mission Design | Physical Parameters ]

[ hide orbit diagram ]

For accurate long-term ephemerides, please instead use our Horizons system.This orbit viewer was implemented using two-body methods, and hence should not be used for determining accurate long-term trajectories (over several years or decades) or planetary encounter circumstances.


Orbital Elements at Epoch 2459396.5 (2021-Jul-01.0) TDB
Reference: JPL 33 (heliocentric ecliptic J2000)
 Element Value Uncertainty (1-sigma)   Units 
e .1055476694857782 6.0102e-08  
a 2.57021049196246 2.3958e-08 au
q 2.298930764447927 1.616e-07 au
i 9.945527309122753 6.5401e-06 deg
node 105.6794695122942 2.8678e-05 deg
peri 358.1062012011932 3.8164e-05 deg
M 308.2904456114132 2.6419e-05 deg
tp 2459612.682114039920
(2022-Feb-02.18211404)
0.00011156 TDB
period 1505.051860813343
4.12
2.1044e-05
5.762e-08
d
yr
n .2391944154040333 3.3445e-09 deg/d
Q 2.841490219476992 2.6487e-08 au
  Orbit Determination Parameters
   # obs. used (total)      187  
   data-arc span      7234 days (19.81 yr)  
   first obs. used      2000-11-27  
   last obs. used      2020-09-17  
   planetary ephem.      DE441  
   SB-pert. ephem.      SB441-N16  
   condition code      0  
   norm. resid. RMS      .58384  
   source      ORB  
   producer      Otto Matic  
   solution date      2021-Apr-15 03:27:28  

Additional Information
 Earth MOID = 1.31608 au 
 Jupiter MOID = 2.2837 au 
 T_jup = 3.401 
[ show covariance matrix ]

Ephemeris | Orbit Diagram | Orbital Elements | Mission Design | Physical Parameters ]

Physical Parameter Table
Parameter Symbol Value Units Sigma Reference Notes
absolute magnitude H 17.0   n/a E2020S67  
diameter diameter 1.987 km 0.178 urn:nasa:pds:neowise_diameters_albedos::2.0[mainbelt] (http://adsabs.harvard.edu/abs/2011ApJ...741...68M)  
geometric albedo albedo 0.093   0.013 urn:nasa:pds:neowise_diameters_albedos::2.0[mainbelt] (http://adsabs.harvard.edu/abs/2011ApJ...741...68M)  
Ephemeris | Orbit Diagram | Orbital Elements | Mission Design | Physical Parameters ]
ABOUT SSD CREDITS/AWARDS PRIVACY/COPYRIGHT GLOSSARY LINKS
FirstGov 2021-Jul-24 15:45 UT
(server date/time)  
NASA Home Page
Site Manager:   Ryan S. Park
Webmaster  Alan B. Chamberlin